Regional Weather Roundup
Issued by NWS

Home | Current Version | Previous Version | Graphics & Text | Print | Product List | Glossary On
Versions: 1 2 3 4 5 6 7 8 9 10 11 12 13 14 15 16 17 18 19 20 21 22 23 24 25 26 27 28 29 30 31 32 33 34 35 36 37 38 39 40 41 42 43 44 45 46 47 48 49 50
265
ASUS43 KBIS 240802
RWRND

NORTH DAKOTA REGIONAL WEATHER ROUNDUP
NATIONAL WEATHER SERVICE BISMARCK ND
300 AM CDT FRI MAR 24 2017

NOTE: "FAIR" INDICATES FEW OR NO CLOUDS BELOW 12,000 FEET WITH NO
SIGNIFICANT WEATHER AND/OR OBSTRUCTIONS TO VISIBILITY.


NDZ001>003-009>011-017-240900-
NORTHWEST NORTH DAKOTA

CITY           SKY/WX    TMP DP  RH WIND       PRES   REMARKS
WILLISTON      FAIR      30  28  92 N8        29.94F
MINOT          FAIR      31  27  85 CALM      30.00R
MINOT AFB      CLEAR     30  26  85 NE6       29.98R
$$

NDZ018>021-031>035-040>046-240900-
SOUTHWEST NORTH DAKOTA

CITY           SKY/WX    TMP DP  RH WIND       PRES   REMARKS
BISMARCK       FAIR      33  31  92 NW6       29.99R
DICKINSON      FAIR      35  34  96 N3        29.94R FOG
GARRISON         N/A     32  29  88 NE3       29.98R
HETTINGER ARPT CLOUDY    37  35  92 S3        29.98R
$$

NDZ004>008-012>016-024-026-027-054-240900-
NORTHEAST NORTH DAKOTA

CITY           SKY/WX    TMP DP  RH WIND       PRES   REMARKS
GRAND FORKS    CLOUDY    33  32  96 N12       29.95R
GRND FRKS AFB  CLOUDY    33  32  98 N13       29.97R
DEVILS LAKE    FAIR      30  29  96 N5        30.00R
$$

NDZ022-023-025-028>030-036>039-047>053-240900-
SOUTHEAST NORTH DAKOTA

CITY           SKY/WX    TMP DP  RH WIND       PRES   REMARKS
FARGO          CLOUDY    35  34  96 NW7       29.93R FOG
JAMESTOWN      FAIR      33  31  92 N12       29.93S
$$





USA.gov is the U.S. government's official web portal to all federal, state and local government web resources and services.